Regional Weather Roundup
Issued by NWS

Home | Current Version | Previous Version | Graphics & Text | Print | Product List | Glossary Off
Versions: 1 2 3 4 5 6 7 8 9 10 11 12 13 14 15 16 17 18 19 20 21 22 23 24 25 26 27 28 29 30 31 32 33 34 35 36 37 38 39 40 41 42 43 44 45 46 47 48 49 50

000
ASUS43 KTOP 070059
RWRKS

WEATHER ROUNDUP FOR KANSAS
NATIONAL WEATHER SERVICE GOODLAND KS
800 PM CDT MON JUL 06 2015

NOTE:  "FAIR" INDICATES FEW OR NO CLOUDS BELOW 12,000 FEET WITH NO
SIGNIFICANT WEATHER AND/OR OBSTRUCTIONS TO VISIBILITY.

KSZ001>006-013>018-027>032-041>047-070200-
NORTHWEST KANSAS

CITY           SKY/WX    TMP DP  RH WIND       PRES   REMARKS
GOODLAND       MOSUNNY   70  54  56 N16       30.13R HAZE
HAYS           CLOUDY    77  57  50 N22G28    30.01R
HILL CITY      CLOUDY    78  52  40 N20G32    30.06R HAZE
RUSSELL        LGT RAIN  74  64  71 NE18G26   29.98R
$$

KSZ061>065-074>080-084>089-070200-
SOUTHWEST KANSAS

CITY           SKY/WX    TMP DP  RH WIND       PRES   REMARKS
DODGE CITY     CLOUDY    71  60  68 N16G25    30.03R
ELKHART          N/A     70  56  61 N15         N/A
GARDEN CITY    CLOUDY    73  60  63 NE18      30.05R
GREAT BEND     PTSUNNY   73  63  68 N17G25    29.99R
LIBERAL        CLOUDY    72  61  68 N20G25    30.06S
$$

KSZ066>073-081>083-090>101-070200-
SOUTHEAST KANSAS

CITY           SKY/WX    TMP DP  RH WIND       PRES   REMARKS
CHANUTE        TSTM      73  71  93 VRB5G22   29.91R VSB 1
COFFEYVILLE    CLOUDY    83  74  74 S12G18    29.85F
HUTCHINSON     CLOUDY    72  68  87 N12G21    29.93R
MEDICINE LODGE   N/A     75  70  84 N22G28    29.91R
NEWTON         CLOUDY    72  66  83 NE10      29.93S
PARSONS        CLOUDY    83  75  77 VRB5      29.88S THUNDER
WICHITA INTL   CLOUDY    73  70  90 NE7       29.88R
WICHITA JABRA  CLOUDY    72  72 100 NE6       29.89F
WICHITA MCCONL HVY RAIN  72  70  94 NE7       29.89S
WINFIELD       TSTM      70  69  97 VRB5      29.88F
$$

KSZ007>012-019>026-033>040-048>060-102>105-070200-
NORTHEAST KANSAS

CITY           SKY/WX    TMP DP  RH WIND       PRES   REMARKS
CONCORDIA      CLOUDY    73  65  75 N14G23    29.98R
EMPORIA        LGT RAIN  70  69  97 E3        29.90F
LAWRENCE       LGT RAIN  72  71  97 E3        29.87F
MANHATTAN      LGT RAIN  72  71  97 N9        29.92R
OLATHE IND     CLOUDY    71  70  96 CALM      29.88F
OLATHE EXE     RAIN      71  70  96 CALM      29.87S FOG
SALINA         CLOUDY    74  67  78 N20G26    29.94R
TOPEKA BILLARD LGT RAIN  73  72  96 W5        29.89R
TOPEKA FORBES  LGT RAIN  73  70  90 SW3       29.90R
$$



USA.gov is the U.S. government's official web portal to all federal, state and local government web resources and services.